Date,TemperatureHighF,TemperatureAvgF,TemperatureLowF,DewpointHighF,DewpointAvgF,DewpointLowF,HumidityHigh,HumidityAvg,HumidityLow,PressureMaxIn,PressureMinIn,WindSpeedMaxMPH,WindSpeedAvgMPH,GustSpeedMaxMPH,PrecipitationSumIn
2013-2-1,69.8,55.8,44.6,48.0,44.0,38.1,89,67,33,30.20,29.76,7,2,11,0.00
2013-2-2,66.0,56.0,49.3,47.7,44.8,31.8,82,67,47,29.76,29.32,14,5,16,0.10
2013-2-3,58.6,47.9,39.6,38.3,30.4,19.2,79,53,30,30.00,29.35,9,3,14,0.96
2013-2-4,67.8,46.1,33.1,33.4,24.7,16.9,73,46,23,30.20,30.00,10,2,10,2.97
2013-2-5,55.0,47.6,37.8,45.7,37.4,28.2,83,68,53,30.17,29.82,7,2,12,0.00
2013-2-6,60.4,50.1,41.2,45.1,35.6,22.3,88,61,26,29.82,29.53,18,5,21,0.07
2013-2-7,62.8,43.5,37.0,43.0,35.2,29.1,93,75,35,29.58,29.47,11,3,13,1.21
2013-2-8,58.8,50.2,37.4,30.2,24.1,17.1,74,38,26,29.79,29.64,10,4,15,0.00
2013-2-9,57.6,41.9,32.9,30.0,20.7,12.6,75,46,25,29.94,29.79,8,3,13,0.00
2013-2-10,59.7,39.9,28.8,23.7,18.6,10.2,71,45,25,30.00,29.91,7,2,11,0.00
2013-2-11,87.3,52.9,35.2,82.8,39.0,11.8,88,61,31,30.00,29.55,11,5,20,2.87
2013-2-12,84.2,51.4,40.3,79.9,41.6,28.9,99,72,33,29.73,29.58,4,1,11,0.01
2013-2-13,63.9,45.4,35.8,37.4,30.9,22.1,92,63,25,29.85,29.70,5,2,9,0.00
2013-2-14,67.1,46.9,33.6,31.3,27.9,23.9,81,53,23,30.03,29.85,6,2,9,0.00
2013-2-15,67.8,45.6,33.4,33.6,29.9,21.6,86,59,23,30.06,29.97,5,1,8,0.00
2013-2-16,69.8,48.4,36.1,37.0,31.4,25.0,84,58,22,30.12,30.03,8,2,11,0.00
2013-2-17,61.7,45.2,36.1,38.7,32.3,27.3,83,63,34,30.09,30.00,12,2,14,0.02
2013-2-18,66.6,44.6,35.8,35.4,32.7,27.7,89,66,30,30.03,29.97,6,2,9,0.00
2013-2-19,68.9,45.8,31.6,30.6,25.7,-99.9,87,53,22,30.06,29.94,7,2,8,0.00
2013-2-20,63.5,44.8,32.2,33.1,27.7,22.6,79,55,25,30.03,29.94,6,1,6,0.00
2013-2-21,68.5,48.6,34.0,42.1,30.9,23.2,83,56,22,29.94,29.70,9,2,11,0.06
2013-2-22,59.7,51.4,46.8,45.9,41.4,36.9,87,69,49,29.70,29.47,11,3,12,0.03
2013-2-23,86.9,54.9,38.7,79.0,48.2,35.2,95,79,60,29.64,29.41,21,4,21,1.23
2013-2-24,53.4,44.3,37.0,36.7,30.2,20.3,83,60,31,29.97,29.64,16,4,19,0.19
2013-2-25,42.4,39.8,37.2,39.4,35.4,28.9,96,85,63,30.09,29.94,7,2,11,1.40
2013-2-26,64.2,45.2,35.2,43.9,34.3,24.8,99,71,27,30.15,30.06,5,1,6,0.00
2013-2-27,67.3,48.5,33.4,37.2,28.6,21.2,96,54,23,30.23,30.15,6,2,10,0.00
2013-2-28,70.5,48.7,33.3,37.6,31.0,25.2,85,56,22,30.26,30.17,8,1,10,0.00